[Iaude] MPEC R78: 2016 RK17 [a=2.10,e=0.51,i=6.9,H=25.2]

mpec at mpc.eps.harvard.edu mpec at mpc.eps.harvard.edu
Wed Sep 7 18:27:17 EDT 2016


M.P.E.C. 2016-R78                                Issued 2016 Sept. 7, 22:24 UT
 
     The Minor Planet Electronic Circulars contain information on unusual
         minor planets and routine data on comets.  They are published
    on behalf of Division F of the International Astronomical Union by the
          Minor Planet Center, Smithsonian Astrophysical Observatory,
                          Cambridge, MA 02138, U.S.A.

             Prepared using the Tamkin Foundation Computer Network

                              MPC at CFA.HARVARD.EDU
            URL http://www.minorplanetcenter.net/    ISSN 1523-6714


                                   2016 RK17
 
Observations:
     K16R17K* C2016 09 05.28519 21 53 35.68 -02 29 41.1          19.8 VqER078G96
     K16R17K  C2016 09 05.29003 21 53 40.88 -02 30 06.0          19.8 VqER078G96
     K16R17K  C2016 09 05.29482 21 53 46.01 -02 30 30.5          19.6 VqER078G96
     K16R17K  C2016 09 05.29970 21 53 51.21 -02 30 55.8          18.9 VqER078G96
     K16R17K  C2016 09 05.33822 21 54 32.39 -02 34 14.5          19.9 VqER078G96
     K16R17K  C2016 09 05.33846 21 54 32.65 -02 34 16.2          19.6 VqER078G96
     K16R17K  C2016 09 05.33869 21 54 32.92 -02 34 17.5          19.9 VqER078G96
     K16R17K  C2016 09 05.33893 21 54 33.17 -02 34 18.4          19.8 VqER078G96
     K16R17K HC2016 09 05.36021 21 54 55.95 -02 36 06.7          19.8 VoER078691
     K16R17K HC2016 09 05.36507 21 55 01.29 -02 36 32.2                oER078691
     K16R17K HC2016 09 05.36989 21 55 06.48 -02 36 56.9          20.4 VoER078691
     K16R17K KC2016 09 05.38851 21 55 26.44 -02 38 31.1          18.0 RoER078291
     K16R17K KC2016 09 05.38983 21 55 27.85 -02 38 38.0          17.9 RoER078291
     K16R17K KC2016 09 05.39163 21 55 29.80 -02 38 47.2                oER078291
     K16R17K KC2016 09 05.39294 21 55 31.21 -02 38 53.7                oER078291
     K16R17K KC2016 09 05.39429 21 55 32.66 -02 39 00.7                oER078291
     K16R17K KC2016 09 05.83485 22 03 47.34 -03 16 23.0          19.0 RtER078104
     K16R17K KC2016 09 05.84116 22 03 53.87 -03 16 54.1          19.1 RtER078104
     K16R17K KC2016 09 05.84631 22 03 59.22 -03 17 20.1          19.3 RtER078104
     K16R17K KC2016 09 05.91607 22 05 11.29 -03 23 04.5          19.3 RqER078203
     K16R17K KC2016 09 05.93873 22 05 34.47 -03 24 56.1          19.6 RqER078203
     K16R17K KC2016 09 05.99362 22 06 31.74 -03 29 19.8          20.2 VqER078I93
     K16R17K KC2016 09 05.99755 22 06 35.75 -03 29 39.9          19.9 VqER078I93
     K16R17K KC2016 09 06.00148 22 06 39.80 -03 29 57.5          20.0 VqER078I93
     K16R17K  C2016 09 06.21091 22 10 25.99 -03 46 17.3          19.8 VqER078G96
     K16R17K  C2016 09 06.22537 22 10 40.37 -03 47 25.8          19.7 VqER078G96
     K16R17K  C2016 09 06.23255 22 10 47.49 -03 47 59.3          19.1 VqER078G96
     K16R17K  C2016 09 06.24322 22 10 58.03 -03 48 50.5          19.9 VqER078G96
     K16R17K  C2016 09 06.24980 22 11 04.58 -03 49 21.6          20.0 VqER078G96
     K16R17K  C2016 09 06.25641 22 11 11.12 -03 49 53.1          19.6 VqER078G96
     K16R17K  C2016 09 06.26095 22 11 15.52 -03 50 14.1          20.2 VqER078703
     K16R17K  C2016 09 06.26300 22 11 17.59 -03 50 23.9          19.6 VqER078G96
     K16R17K  C2016 09 06.26440 22 11 18.97 -03 50 30.1                qER078703
     K16R17K KC2016 09 06.32565522 12 16.82 -03 55 31.4          20.2 VuER078H21
     K16R17K KC2016 09 06.32838422 12 19.54 -03 55 44.1          19.8 VuER078H21
     K16R17K KC2016 09 06.33054022 12 21.71 -03 55 54.1          19.7 VuER078H21
     K16R17K KC2016 09 06.33284122 12 23.99 -03 56 04.8          20.2 VuER078H21
     K16R17K KC2016 09 07.17400322 26 32.21 -04 58 47.9          20.1 VuER078H21
     K16R17K KC2016 09 07.17763122 26 35.55 -04 59 03.3          20.1 VuER078H21
     K16R17K KC2016 09 07.18218222 26 39.71 -04 59 22.9          20.1 VuER078H21
     K16R17K KC2016 09 07.87487 22 37 25.23 -05 46 47.0          19.6 RoER078461
     K16R17K KC2016 09 07.87940 22 37 29.17 -05 47 05.2          19.4 RoER078461
     K16R17K KC2016 09 07.88387 22 37 32.99 -05 47 22.8          19.0 RoER078461
 
Observer details:
104 San Marcello Pistoiese.  Observers P. Bacci, M. Maestripieri.  Measurers
    P. Bacci, L. Tesi, G. Fagioli.  0.60-m f/4 reflector + CCD.
203 GiaGa Observatory.  Observers S. Foglia, G. Galli.  Measurer G. Galli.
    0.28-m f/6.8 Schmidt-Cassegrain + CCD.
291 LPL/Spacewatch II.  Observer T. H. Bressi.  1.8-m f/2.7 reflector + CCD.
461 University of Szeged, Piszkesteto Stn. (Konkoly).  Observer K. Sarneczky.
    0.60-m Schmidt + CCD.
691 Steward Observatory, Kitt Peak.  Observer T. H. Bressi.  0.9-m f/3
    reflector + CCD.
703 Catalina Sky Survey.  Observer R. A. Kowalski.  Measurers
    E. J. Christensen, D. C. Fuls, A. R. Gibbs, A. D. Grauer, J. A. Johnson,
    R. A. Kowalski, S. M. Larson, G. J. Leonard, R. G. Matheny, R. L. Seaman,
    F. C. Shelly.  0.68-m Schmidt + CCD.
G96 Mt. Lemmon Survey.  Observers R. G. Matheny, D. C. Fuls.  Measurers
    E. J. Christensen, D. C. Fuls, A. R. Gibbs, A. D. Grauer, J. A. Johnson,
    R. A. Kowalski, S. M. Larson, G. J. Leonard, R. G. Matheny, R. L. Seaman,
    F. C. Shelly.  1.5-m reflector + 10K CCD.
H21 Astronomical Research Observatory, Westfield.  Observer R. Holmes.
    Measurers S. Foglia, L. Buzzi, T. Linder, R. Holmes.  0.61-m f/4.5
    astrograph + CCD, 0.76-m f/3.0 astrograph + CCD.
I93 St Pardon de Conques.  Observer F. Losse.  0.40-m f/3.7 reflector + CCD.
 
Orbital elements:
2016 RK17                                                Earth MOID = 0.0414 AU
Epoch 2016 July 31.0 TT = JDT 2457600.5                 MPC
M 354.97666              (2000.0)            P               Q
n   0.32469842     Peri.  152.22017     +0.75064467     +0.66010462
a   2.0964408      Node   166.35781     -0.62618388     +0.72438497
e   0.5087197      Incl.    6.86360     -0.21077555     +0.19881729
P   3.04           H   25.2           G   0.15           U   7
Residuals in seconds of arc
160905 G96  0.6-  0.1+    160905 291  0.1+  0.2+    160906 703  0.7-  0.2+
160905 G96  0.2-  0.2+    160905 104  0.6+  0.0     160906 G96  0.2-  0.1+
160905 G96  0.0   0.5+    160905 104  0.2+  0.1+    160906 703  0.1-  0.5+
160905 G96  0.2-  0.4+    160905 104  0.3+  0.5-    160906 H21  0.0   0.3-
160905 G96  0.3-  0.2+    160905 203  0.3+  0.6+    160906 H21  0.1-  0.3-
160905 G96  0.2-  0.2-    160905 203  0.3-  0.4-    160906 H21  0.1+  0.3-
160905 G96  0.1+  0.3-    160905 I93  0.1-  0.7+    160906 H21  0.2-  0.3-
160905 G96  0.0   0.0     160905 I93  0.0   0.4-    160907 H21  0.3-  0.1-
160905 691  1.4-  0.2-    160906 I93  0.7+  1.0+    160907 H21  0.0   0.0
160905 691  0.5+  0.8-    160906 G96  0.1-  0.2-    160907 H21  0.0   0.2-
160905 691  0.8+  0.8-    160906 G96  0.0   0.1+    160907 461  0.1-  0.3+
160905 291  0.1+  0.3+    160906 G96  0.0   0.7+    160907 461  0.4+  0.1-
160905 291  0.0   0.1+    160906 G96  0.4-  0.0     160907 461  0.1-  0.2-
160905 291  0.2+  0.1+    160906 G96  0.3+  0.1+
160905 291  0.2+  0.3+    160906 G96  0.4+  0.2-

Ephemeris:
2016 RK17                a,e,i = 2.10, 0.51, 7                   q = 1.0299
Date    TT    R. A. (2000) Decl.     Delta      r     Elong.  Phase     V
2016 08 08    15 57 50.0 +16 41 43   0.1239  1.0339    95.8    77.4    23.4
...
2016 08 23    17 38 50.0 +14 18 05   0.06613 1.0339   108.4    68.1    21.8
...
2016 08 31    20 01 17.4 +06 05 34   0.04937 1.0468   138.3    39.9    20.3
...
2016 09 06    22 06 39.2 -03 27 50   0.05546 1.0620   166.5    12.8    19.8
2016 09 07    22 23 40.6 -04 44 30   0.05805 1.0649   170.1     9.4    19.8
2016 09 08    22 39 14.7 -05 52 55   0.06098 1.0680   173.1     6.5    19.8
...
2016 09 14    23 46 03.3 -10 17 56   0.08386 1.0889   171.8     7.5    20.5
...
2016 09 22    00 30 26.5 -12 32 22   0.1226  1.1227   165.2    13.2    21.7
...
2016 10 07    01 01 47.8 -12 57 44   0.2105  1.2007   161.4    15.4    23.1

A. U. Tomatic                (C) Copyright 2016 MPC           M.P.E.C. 2016-R78




More information about the Iaude mailing list